Location: Fort Wayne
(41.1310°N, 85.1290°W)
Time: 10:58:41
(UTC-04:00)

ISS - Visible Passes

Search period start: 30 August 2016 00:00
Search period end: 09 September 2016 00:00
Orbit: 402 x 406 km, 51.6° (Epoch: 30 August)

Date Brightness Start Highest point End Pass type
(mag) Time Alt. Az. Time Alt. Az. Time Alt. Az.
03 Sep -1.0 06:25:04 10° S 06:27:34 20° SE 06:30:05 10° E visible
04 Sep -0.4 05:34:34 10° SE 05:35:21 11° SE 05:36:08 10° ESE visible
05 Sep -2.6 06:16:03 12° SW 06:18:56 49° SE 06:22:07 10° ENE visible
06 Sep -1.6 05:26:01 24° SSE 05:26:36 25° SE 05:29:22 10° ENE visible
07 Sep -0.1 04:35:54 10° E 04:35:54 10° E 04:36:00 10° E visible
07 Sep -3.3 06:08:33 23° WSW 06:10:25 68° NW 06:13:41 10° NE visible
08 Sep -2.8 05:18:22 55° E 05:18:22 55° E 05:21:12 10° ENE visible
